Pompano Beach, FL

2:32 AM EST on February 21, 2018 (GMT -0500)
Pompano Beach

Weather History for KPMP - November, 2013

Change the Weather History Date:

Tuesday, November 26, 2013

  Actual Average Record
Temperature  
Mean Temperature 78 °F -  
Max Temperature 82 °F 80 °F 86 °F (1967)
Min Temperature 73 °F 64 °F 39 °F (1949)
Cooling Degree Days 12    
Growing Degree Days 28 (Base 50)    
Moisture  
Dew Point 71 °F    
Average Humidity 81    
Maximum Humidity 88    
Minimum Humidity 74    
Precipitation  
Precipitation 0.03 in - - ()
Sea Level Pressure  
Sea Level Pressure 29.90 in    
Wind  
Wind Speed 18 mph (SE)    
Max Wind Speed 29 mph    
Max Gust Speed 37 mph    
Visibility 9 miles    
Events Rain    
Averages and records for this station are not official NWS values.
T = Trace of Precipitation, MM = Missing Value Source: NWS Daily Summary

Daily Weather History Graph

Daily Weather History Graph

Search for Another Location

Airport or City:

Trip Planner

Search our weather history database for the weather conditions in past years. The results will help you decide how hot, cold, wet, or windy it might be!

Date:

Astronomy

Nov. 26, 2013 Rise Set
Actual Time 6:47 AM EST 5:28 PM EST
Civil Twilight 6:22 AM EST 5:52 PM EST
Nautical Twilight 5:54 AM EST 6:21 PM EST
Astronomical Twilight 5:26 AM EST 6:49 PM EST
Moon 12:26 AM EST (11/26) 1:00 PM EST (11/26)
Length of Visible Light 11h 30m
Length of Day
10h 40m
Last Quarter, 41% of the Moon is Illuminated
Nov 26
Last Quarter
Dec 2
New
Dec 9
First Quarter
Dec 17
Full
Dec 25
Last Quarter

Hourly Weather History & Observations

Time (EST) Temp. Heat Index Dew Point Humidity Pressure Visibility Wind Dir Wind Speed Gust Speed Precip Events Conditions
12:39 AM 75.2 °F - 69.8 °F 83% - 10.0 mi East 19.6 mph 27.6 mph 0.00 in   Overcast
12:53 AM 75.0 °F - 69.1 °F 82% - 7.0 mi East 16.1 mph 26.5 mph 0.00 in Rain Light Rain
1:07 AM 75.2 °F - 69.8 °F 83% - 4.0 mi East 28.8 mph 36.8 mph 0.01 in Rain Light Rain
1:11 AM 73.4 °F - 69.8 °F 88% - 2.5 mi ESE 21.9 mph 36.8 mph 0.02 in Rain Heavy Rain
1:23 AM 73.4 °F - 69.8 °F 88% - 10.0 mi ESE 19.6 mph - 0.02 in   Overcast
1:53 AM 73.9 °F - 70.0 °F 87% - 9.0 mi ESE 18.4 mph 24.2 mph 0.03 in Rain Light Rain
2:17 AM 75.2 °F - 69.8 °F 83% - 10.0 mi East 20.7 mph 28.8 mph 0.00 in   Overcast
2:53 AM 75.9 °F - 69.1 °F 79% - 10.0 mi ESE 23.0 mph 31.1 mph 0.00 in   Overcast
3:03 AM 75.2 °F - 69.8 °F 83% - 10.0 mi ESE 19.6 mph 32.2 mph N/A   Overcast
3:26 AM 75.2 °F - 68.0 °F 78% - 10.0 mi ESE 21.9 mph 31.1 mph N/A   Overcast
3:53 AM 75.9 °F - 69.1 °F 79% - 8.0 mi ESE 17.3 mph 24.2 mph 0.00 in Rain Light Rain
4:53 AM 77.0 °F - 69.1 °F 76% - 10.0 mi ESE 18.4 mph 27.6 mph 0.00 in   Overcast
5:53 AM 77.0 °F - 69.1 °F 76% - 9.0 mi ESE 20.7 mph 29.9 mph N/A   Overcast
6:12 AM 77.0 °F - 69.8 °F 78% - 9.0 mi SE 19.6 mph 28.8 mph N/A   Overcast
6:32 AM 77.0 °F - 69.8 °F 78% - 10.0 mi SE 23.0 mph 28.8 mph N/A   Overcast
6:53 AM 77.0 °F - 70.0 °F 79% - 9.0 mi SE 19.6 mph 28.8 mph N/A   Overcast
7:25 AM 77.0 °F - 69.8 °F 78% - 9.0 mi SE 23.0 mph 27.6 mph N/A   Overcast
7:53 AM 77.0 °F - 71.1 °F 82% 30.01 in 8.0 mi SE 25.3 mph 32.2 mph N/A   Mostly Cloudy
8:13 AM 77.0 °F - 71.6 °F 83% - 9.0 mi SE 25.3 mph 33.4 mph N/A   Mostly Cloudy
8:53 AM 78.1 °F - 71.1 °F 79% - 9.0 mi SE 23.0 mph 32.2 mph N/A   Mostly Cloudy
9:53 AM 78.1 °F - 71.1 °F 79% 30.01 in 7.0 mi SE 18.4 mph 28.8 mph 0.00 in Rain Light Rain
10:07 AM 78.8 °F - 71.6 °F 78% 30.00 in 10.0 mi SE 21.9 mph 29.9 mph 0.00 in   Mostly Cloudy
10:53 AM 79.0 °F - 72.0 °F 79% 29.99 in 9.0 mi SE 17.3 mph 25.3 mph 0.00 in   Mostly Cloudy
11:51 AM 78.8 °F - 71.6 °F 78% 29.96 in 10.0 mi SSE 16.1 mph 21.9 mph N/A   Overcast
11:53 AM 79.0 °F - 72.0 °F 79% 29.96 in 9.0 mi SE 16.1 mph 23.0 mph N/A   Overcast
12:53 PM 82.0 °F 87.4 °F 73.0 °F 74% 29.92 in 10.0 mi SSE 17.3 mph 21.9 mph 0.00 in   Overcast
1:53 PM 81.0 °F 85.2 °F 72.0 °F 74% 29.90 in 10.0 mi South 16.1 mph 21.9 mph N/A   Scattered Clouds
2:51 PM 80.6 °F 85.4 °F 73.4 °F 79% 29.88 in 10.0 mi SSE 12.7 mph 20.7 mph 0.00 in   Mostly Cloudy
2:53 PM 81.0 °F 85.8 °F 73.0 °F 77% 29.88 in 10.0 mi SSE 11.5 mph 20.7 mph 0.00 in   Mostly Cloudy
3:32 PM 80.6 °F 84.6 °F 71.6 °F 74% 29.87 in 10.0 mi SSE 12.7 mph - N/A   Partly Cloudy
3:53 PM 80.1 °F 84.2 °F 73.0 °F 79% 29.88 in 9.0 mi SSE 11.5 mph 18.4 mph 0.00 in Rain Light Rain
4:53 PM 79.0 °F - 73.9 °F 84% 29.86 in 9.0 mi South 13.8 mph 21.9 mph 0.00 in Rain Light Rain
5:09 PM 78.8 °F - 73.4 °F 83% 29.86 in 10.0 mi South 10.4 mph - 0.00 in   Scattered Clouds
5:53 PM 79.0 °F - 73.0 °F 82% 29.86 in 10.0 mi South 8.1 mph - 0.00 in   Clear
6:11 PM 78.8 °F - 73.4 °F 83% 29.86 in 10.0 mi South 9.2 mph - N/A   Mostly Cloudy
6:53 PM 79.0 °F - 73.0 °F 82% 29.87 in 10.0 mi South 8.1 mph 17.3 mph N/A   Scattered Clouds
7:53 PM 78.1 °F - 73.0 °F 84% 29.88 in 10.0 mi SSW 6.9 mph - N/A   Scattered Clouds
8:03 PM 78.8 °F - 73.4 °F 83% 29.88 in 10.0 mi SSW 8.1 mph - N/A   Mostly Cloudy
8:13 PM 78.8 °F - 73.4 °F 83% 29.88 in 10.0 mi South 5.8 mph - N/A   Scattered Clouds
8:53 PM 78.1 °F - 73.0 °F 84% 29.87 in 10.0 mi SSW 8.1 mph - N/A   Clear
9:53 PM 78.1 °F - 73.0 °F 84% 29.88 in 10.0 mi South 6.9 mph - N/A   Clear
10:53 PM 78.1 °F - 73.9 °F 87% 29.88 in 9.0 mi South 8.1 mph - N/A   Scattered Clouds
11:53 PM 78.1 °F - 73.9 °F 87% 29.85 in 10.0 mi South 8.1 mph - N/A   Clear